#timestamp,LO_Frequency,Hit,StdDev 
1608364815.2,286046974.1,P
1608364835.0,286046977.2,P
1608364836.0,286046977.2,P
1608364855.8,286046984.9,Y
1608364875.6,286047018.7,P
1608364895.5,286047018.6,N
1608364915.3,286047021.4,N
1608364935.1,286047020.6,N
1608364955.9,286047029.9,N
1608364975.7,286047035.8,N
1608364995.6,286047032.3,N
1608365015.4,286047031.7,N
1608365035.2,286047039.1,N
1608365055.1,286047035.4,N
1608365056.0,286047035.4,N
1608365075.8,286047033.5,N
1608365095.7,286047037.1,N
1608365115.5,286047040.8,N
1608365135.3,286047041.8,N
1608365155.2,286047047.2,Y
1608365175.0,286047021.9,P
1608365175.9,286047021.9,P
1608365195.7,286047011.4,P
1608365215.6,286047011.6,N
1608365235.4,286047012.1,N
1608365255.3,286047017.0,N
1608365275.1,286047016.3,N
1608365295.8,286047021.4,Y
1608365315.7,286047006.2,P
1608365335.5,286047009.6,N
1608365355.4,286046998.5,N
1608365375.2,286046984.3,N
1608365395.0,286046978.2,N
1608365395.9,286046978.2,N
1608365415.8,286046970.5,N
1608365435.6,286046960.4,N
1608365455.5,286046954.0,N
1608365475.3,286046948.0,N
1608365495.1,286046946.0,N
1608365515.9,286046948.5,N
1608365535.7,286046962.8,N
1608365555.6,286046956.1,N
1608365575.4,286046935.1,N
1608365595.2,286046920.4,Y
1608365615.1,286046956.9,P
1608365616.0,286046956.9,P
1608365635.8,286046972.2,P
1608365655.7,286046985.0,N
1608365675.5,286046988.8,N
1608365695.3,286046994.1,N
1608365715.2,286046997.9,N
1608365735.0,286046998.0,N
1608365735.9,286046998.0,N
1608365755.7,286046999.5,N
1608365775.6,286046998.3,N
1608365795.4,286046998.8,N
1608365815.3,286046994.8,N
1608365835.1,286046985.8,N
1608365855.8,286046972.6,N
1608365875.7,286046963.7,N
1608365895.5,286046957.2,N
1608365915.4,286046956.7,N
1608365935.2,286046957.5,N
1608365955.0,286046960.8,N
1608365955.9,286046960.8,N
1608365975.8,286046964.8,N
1608365995.6,286046974.9,N
1608366015.5,286046981.1,N
1608366035.3,286046989.9,N
1608366055.1,286046992.2,N
1608366075.9,286046994.6,N
1608366095.7,286046983.6,N
1608366115.5,286046980.0,N
1608366135.4,286046971.1,N
1608366155.2,286046966.3,N
1608366175.0,286046956.9,N
1608366176.0,286046956.9,N
1608366195.8,286046952.0,Y
1608366215.6,286046976.8,P
1608366235.5,286046980.8,P
1608366255.3,286046988.9,P
1608366275.1,286047001.3,N
1608366295.9,286047010.3,N
1608366315.7,286047017.1,N
1608366335.6,286047016.4,N
1608366355.4,286047023.2,N
1608366375.2,286047018.6,N
1608366395.1,286047022.0,N
1608366396.0,286047022.0,N
1608366415.8,286047026.3,N
1608366435.6,286047028.8,N
1608366455.5,286047020.8,N
1608366475.3,286046996.9,N
1608366495.2,286046989.7,N
1608366515.9,286046987.0,N
1608366535.7,286046980.6,N
1608366555.6,286046973.0,N
1608366575.4,286046966.5,N
1608366595.2,286046955.0,N
1608366615.1,286046948.1,N
1608366616.0,286046948.1,N
1608366635.8,286046950.8,N
1608366655.7,286046953.5,N
1608366675.5,286046961.0,N
1608366695.3,286046969.2,N
1608366715.2,286046973.1,N
1608366735.0,286046978.6,N
1608366735.9,286046978.6,N
1608366755.7,286046985.4,N
1608366775.6,286046989.3,N
1608366795.4,286046992.1,N
1608366815.3,286046993.5,N
1608366835.1,286046997.8,N
1608366836.0,286046997.8,N
1608366855.8,286046998.3,N
1608366875.7,286047005.4,N
1608366895.5,286047007.1,N
1608366915.3,286047008.4,N
1608366935.2,286047017.0,N
1608366955.0,286047014.2,N
1608366955.9,286047014.2,N
1608366975.8,286047015.5,N
1608366995.6,286047010.6,N
1608367015.4,286047008.4,N
1608367035.3,286047005.4,N
1608367055.1,286047004.5,N
1608367075.9,286047007.7,N
1608367095.7,286047013.9,N
1608367115.5,286047015.9,N
1608367135.4,286047012.4,N
1608367155.2,286047012.7,N
1608367175.0,286047017.9,N
1608367175.9,286047017.9,N
1608367195.8,286047020.5,N
1608367215.6,286047023.5,N
1608367235.5,286047022.0,N
1608367255.3,286047027.9,N
1608367275.1,286047022.2,N
1608367295.9,286047021.8,N
1608367315.7,286047013.0,N
1608367335.6,286047018.4,N
1608367355.4,286047011.9,N
1608367375.2,286047025.5,Y
1608367395.1,286047020.8,P
1608367396.0,286047020.8,P
1608367415.8,286047020.2,P
1608367435.6,286047020.5,Y
1608367455.5,286047004.9,P
1608367475.3,286047004.8,N
1608367495.2,286047005.0,N
1608367515.9,286047004.9,N
1608367535.7,286047005.4,N
1608367555.6,286047008.0,N
1608367575.4,286047013.8,N
1608367595.3,286047015.3,Y
1608367615.1,286047004.9,P
1608367616.0,286047004.9,N
1608367635.8,286047004.8,P
1608367655.7,286047008.6,Y
1608367675.5,286047000.0,P
1608367695.3,286047002.5,N
1608367715.2,286046999.1,N
1608367735.0,286047000.2,N
1608367735.9,286047000.2,N
1608367755.8,286046999.0,N
1608367775.6,286046992.5,Y
1608367795.4,286046983.8,P
1608367815.3,286046982.5,N
1608367835.1,286046989.1,N
1608367855.9,286046993.7,N
1608367875.7,286046997.9,N
1608367895.5,286046996.8,N
1608367915.4,286047000.5,N
1608367935.2,286047006.1,N
1608367955.0,286047011.7,N
1608367955.9,286047011.7,N
1608367975.8,286047010.1,N
1608367995.6,286047007.4,N
1608368015.5,286047008.4,N
1608368035.3,286047010.2,N
1608368055.1,286047011.8,N
1608368075.9,286047009.4,N
1608368095.7,286047000.3,N
1608368115.5,286046986.4,N
1608368135.4,286046978.8,N
1608368155.2,286046979.1,N
1608368175.1,286046982.9,N
1608368176.0,286046982.9,N
1608368195.8,286046978.3,N
1608368215.6,286046973.9,N
1608368235.5,286046971.4,N
1608368255.3,286046975.9,N
1608368275.2,286046981.4,N
1608368295.9,286046986.0,N
1608368315.7,286046988.3,N
1608368335.6,286046986.2,N
1608368355.4,286046986.3,N
1608368375.3,286046990.5,N
1608368395.1,286046997.3,N
1608368396.0,286046997.3,N
